FIN2EG EHAM-EFHK

Flight info

Callsign FIN2EG
Flight time N/A
Altitude 41000
Route ANDIK N873 JUIST DCT DOSUR DCT RASMU DCT ROGMI DCT ALAMI DCT OKEVU DCT EVADI Y370 DIVAM
Aircraft A359/H-SDE2E3GHIJ3J4J5LM1ORWXY/LB1D1

Departure

Time N/A
Airport Amsterdam Airport Schiphol (EHAM)

Arrival

Time 2026-05-06 21:42
Airport Helsinki Vantaa Airport (EFHK)
Time Latitude Longitude Altitude Speed Heading
2026-05-06 21:06 58.66597 19.56614 41019 ft 548 kts 61°
2026-05-06 21:06 58.68457 19.63019 41031 ft 548 kts 61°
2026-05-06 21:07 58.72140 19.75753 41017 ft 548 kts 61°
2026-05-06 21:07 58.75839 19.88593 41020 ft 548 kts 61°
2026-05-06 21:08 58.79521 20.01437 41019 ft 548 kts 61°
2026-05-06 21:08 58.83194 20.14314 41020 ft 548 kts 61°
2026-05-06 21:09 58.86858 20.27236 41036 ft 548 kts 61°
2026-05-06 21:09 58.90490 20.40119 41020 ft 548 kts 61°
2026-05-06 21:10 58.94135 20.53119 41019 ft 549 kts 62°
2026-05-06 21:10 58.97765 20.66143 41020 ft 549 kts 62°
2026-05-06 21:11 59.01354 20.79092 41021 ft 549 kts 62°
2026-05-06 21:11 59.04953 20.92146 41029 ft 548 kts 62°
2026-05-06 21:12 59.08797 21.04972 41018 ft 548 kts 58°
2026-05-06 21:12 59.12865 21.17546 41018 ft 549 kts 57°
2026-05-06 21:13 59.16874 21.30102 41021 ft 549 kts 58°
2026-05-06 21:13 59.20851 21.42831 41020 ft 549 kts 58°
2026-05-06 21:14 59.24773 21.55534 40518 ft 541 kts 58°
2026-05-06 21:14 59.26720 21.61864 39839 ft 541 kts 59°
2026-05-06 21:14 59.28635 21.68121 39099 ft 543 kts 59°
2026-05-06 21:14 59.30574 21.74476 38273 ft 544 kts 59°
2026-05-06 21:15 59.32515 21.80852 37278 ft 545 kts 59°
2026-05-06 21:15 59.34422 21.87127 36390 ft 533 kts 59°
2026-05-06 21:15 59.36278 21.93246 35680 ft 532 kts 59°
2026-05-06 21:15 59.38163 21.99469 34961 ft 532 kts 60°
2026-05-06 21:16 59.40049 22.05715 34129 ft 534 kts 60°
2026-05-06 21:16 59.41932 22.11969 33448 ft 531 kts 60°
2026-05-06 21:16 59.43794 22.18169 32862 ft 525 kts 60°
2026-05-06 21:16 59.45559 22.24063 32338 ft 521 kts 60°
2026-05-06 21:17 59.47382 22.30162 31765 ft 517 kts 60°
2026-05-06 21:17 59.48941 22.35397 31287 ft 513 kts 59°
2026-05-06 21:17 59.50699 22.41306 30729 ft 509 kts 59°
2026-05-06 21:17 59.52360 22.46900 30231 ft 506 kts 59°
2026-05-06 21:18 59.54120 22.52846 29606 ft 501 kts 59°
2026-05-06 21:18 59.55842 22.58692 29069 ft 496 kts 60°
2026-05-06 21:18 59.57566 22.64564 28523 ft 491 kts 60°
2026-05-06 21:18 59.59254 22.70330 27983 ft 486 kts 60°
2026-05-06 21:19 59.60937 22.76091 27424 ft 481 kts 60°
2026-05-06 21:19 59.62600 22.81794 26905 ft 476 kts 60°
2026-05-06 21:19 59.64224 22.87378 26380 ft 473 kts 60°
2026-05-06 21:19 59.65859 22.93013 25834 ft 469 kts 60°
2026-05-06 21:20 59.67474 22.98590 25295 ft 465 kts 60°
2026-05-06 21:20 59.69078 23.04132 24756 ft 462 kts 60°
2026-05-06 21:20 59.70665 23.09631 24234 ft 459 kts 60°
2026-05-06 21:20 59.72242 23.15113 23687 ft 456 kts 60°
2026-05-06 21:21 59.73804 23.20553 23073 ft 452 kts 60°
2026-05-06 21:21 59.75352 23.25958 22525 ft 447 kts 60°
2026-05-06 21:21 59.76874 23.31285 21979 ft 442 kts 60°
2026-05-06 21:21 59.78383 23.36572 21428 ft 437 kts 60°
2026-05-06 21:22 59.79869 23.41796 20897 ft 432 kts 60°
2026-05-06 21:22 59.81338 23.46968 20365 ft 428 kts 60°
2026-05-06 21:22 59.82792 23.52099 19838 ft 424 kts 60°
2026-05-06 21:22 59.84227 23.57178 19304 ft 420 kts 60°
2026-05-06 21:23 59.85636 23.62163 18943 ft 412 kts 60°
2026-05-06 21:23 59.87010 23.67046 18802 ft 397 kts 60°
2026-05-06 21:23 59.88329 23.71755 18681 ft 383 kts 60°
2026-05-06 21:23 59.89602 23.76311 18527 ft 370 kts 60°
2026-05-06 21:24 59.90836 23.80744 18210 ft 363 kts 60°
2026-05-06 21:24 59.91926 23.85271 17753 ft 361 kts 66°
2026-05-06 21:24 59.92909 23.89835 17371 ft 355 kts 67°
2026-05-06 21:24 59.93861 23.94332 17028 ft 350 kts 67°
2026-05-06 21:25 59.94802 23.98776 16666 ft 344 kts 67°
2026-05-06 21:25 59.95726 24.03148 16311 ft 339 kts 67°
2026-05-06 21:25 59.96638 24.07460 15962 ft 334 kts 67°
2026-05-06 21:25 59.97532 24.11698 15636 ft 329 kts 67°
2026-05-06 21:26 59.98413 24.15878 15288 ft 324 kts 67°
2026-05-06 21:26 59.99282 24.20007 14957 ft 320 kts 67°
2026-05-06 21:26 60.00137 24.24086 14637 ft 316 kts 66°
2026-05-06 21:26 60.00980 24.28105 14300 ft 312 kts 66°
2026-05-06 21:27 60.01801 24.32031 13979 ft 308 kts 66°
2026-05-06 21:27 60.02621 24.35962 13642 ft 304 kts 66°
2026-05-06 21:27 60.03428 24.39832 13309 ft 299 kts 66°
2026-05-06 21:27 60.04220 24.43641 13020 ft 295 kts 66°
2026-05-06 21:28 60.05010 24.47440 12716 ft 293 kts 66°
2026-05-06 21:28 60.05788 24.51196 12410 ft 291 kts 66°
2026-05-06 21:28 60.06561 24.54932 12085 ft 289 kts 67°
2026-05-06 21:28 60.07327 24.58641 11782 ft 287 kts 67°
2026-05-06 21:29 60.08084 24.62313 11477 ft 285 kts 67°
2026-05-06 21:29 60.08836 24.65968 11169 ft 282 kts 67°
2026-05-06 21:29 60.09581 24.69591 10881 ft 280 kts 67°
2026-05-06 21:29 60.10479 24.72970 10589 ft 277 kts 53°
2026-05-06 21:30 60.11709 24.75919 10304 ft 275 kts 46°
2026-05-06 21:30 60.13007 24.78729 10010 ft 273 kts 46°
2026-05-06 21:30 60.14325 24.81569 9788 ft 285 kts 46°
2026-05-06 21:30 60.15687 24.84517 9670 ft 288 kts 46°
2026-05-06 21:31 60.17040 24.87462 9187 ft 287 kts 47°
2026-05-06 21:31 60.18390 24.90410 8757 ft 285 kts 47°
2026-05-06 21:31 60.19730 24.93342 8431 ft 283 kts 47°
2026-05-06 21:31 60.21058 24.96252 8106 ft 281 kts 47°
2026-05-06 21:32 60.22373 24.99141 7802 ft 279 kts 47°
2026-05-06 21:32 60.24959 25.04828 7223 ft 275 kts 48°
2026-05-06 21:32 60.26239 25.07650 6905 ft 272 kts 48°
2026-05-06 21:33 60.27503 25.10442 6604 ft 270 kts 48°
2026-05-06 21:33 60.28766 25.13233 6286 ft 267 kts 48°
2026-05-06 21:33 60.30015 25.15999 5972 ft 266 kts 48°
2026-05-06 21:33 60.31259 25.18756 5652 ft 265 kts 48°
2026-05-06 21:34 60.32495 25.21498 5393 ft 263 kts 48°
2026-05-06 21:34 60.33696 25.24166 5247 ft 250 kts 48°
2026-05-06 21:34 60.34841 25.26713 5101 ft 239 kts 48°
2026-05-06 21:34 60.35935 25.29152 4984 ft 231 kts 48°
2026-05-06 21:35 60.36997 25.31518 4810 ft 230 kts 48°
2026-05-06 21:35 60.38080 25.33883 4546 ft 228 kts 45°
2026-05-06 21:35 60.39379 25.35678 4326 ft 228 kts 20°
2026-05-06 21:35 60.40940 25.35928 4085 ft 227 kts 348°
2026-05-06 21:36 60.42303 25.34531 4008 ft 215 kts 322°
2026-05-06 21:36 60.43399 25.32598 3951 ft 204 kts 318°
2026-05-06 21:36 60.44409 25.30692 3845 ft 193 kts 318°
2026-05-06 21:36 60.45153 25.28924 3704 ft 187 kts 302°
2026-05-06 21:37 60.45418 25.26472 3608 ft 176 kts 261°
2026-05-06 21:37 60.44982 25.24272 3519 ft 164 kts 236°
2026-05-06 21:37 60.44251 25.22596 3339 ft 158 kts 225°
2026-05-06 21:37 60.43534 25.21065 3232 ft 152 kts 228°
2026-05-06 21:38 60.42836 25.19517 3081 ft 147 kts 228°
2026-05-06 21:38 60.42157 25.17983 2891 ft 145 kts 229°
2026-05-06 21:38 60.41480 25.16479 2683 ft 144 kts 228°
2026-05-06 21:38 60.41033 25.15492 2565 ft 143 kts 228°
2026-05-06 21:39 60.40363 25.14008 2353 ft 141 kts 228°
2026-05-06 21:39 60.39709 25.12562 2154 ft 138 kts 229°
2026-05-06 21:39 60.39064 25.11136 1965 ft 137 kts 229°
2026-05-06 21:39 60.38420 25.09712 1781 ft 137 kts 229°
2026-05-06 21:40 60.37777 25.08292 1581 ft 137 kts 229°
2026-05-06 21:40 60.37135 25.06874 1400 ft 136 kts 229°
2026-05-06 21:40 60.36497 25.05466 1205 ft 135 kts 229°
2026-05-06 21:40 60.35873 25.04088 1019 ft 134 kts 229°
2026-05-06 21:41 60.35242 25.02709 826 ft 133 kts 228°
2026-05-06 21:41 60.34615 25.01358 656 ft 130 kts 229°
2026-05-06 21:41 60.34006 24.99995 455 ft 129 kts 230°
2026-05-06 21:41 60.33399 24.98661 310 ft 129 kts 230°
2026-05-06 21:42 60.32788 24.97316 179 ft 128 kts 230°
2026-05-06 21:42 60.32248 24.96099 171 ft 95 kts 227°
2026-05-06 21:42 60.31990 24.95529 167 ft 29 kts 226°
2026-05-06 21:42 60.31835 24.95299 169 ft 24 kts 204°
2026-05-06 21:43 60.31815 24.95282 169 ft 0 kts 202°
2026-05-06 21:43 60.31807 24.95275 170 ft 5 kts 202°
2026-05-06 21:43 60.31750 24.95230 169 ft 11 kts 201°
2026-05-06 21:43 60.31663 24.95188 168 ft 12 kts 158°
2026-05-06 21:44 60.31651 24.95321 168 ft 10 kts 57°
2026-05-06 21:44 60.31698 24.95447 168 ft 13 kts 49°
2026-05-06 21:44 60.31768 24.95604 168 ft 17 kts 48°
2026-05-06 21:44 60.31855 24.95799 168 ft 20 kts 47°
2026-05-06 21:45 60.31923 24.95988 168 ft 12 kts 89°
2026-05-06 21:45 60.31876 24.96117 168 ft 12 kts 137°
2026-05-06 21:45 60.31870 24.96127 168 ft 1 kts 140°
2026-05-06 21:45 60.31858 24.96133 168 ft 4 kts 170°
2026-05-06 21:46 60.31821 24.96094 168 ft 9 kts 213°
2026-05-06 21:46 60.31761 24.95974 168 ft 15 kts 227°
2026-05-06 21:46 60.31701 24.95846 168 ft 0 kts 226°
2026-05-06 21:46 60.31699 24.95842 168 ft 1 kts 226°
2026-05-06 21:47 60.31686 24.95815 168 ft 5 kts 226°
2026-05-06 21:47 60.31677 24.95799 168 ft 0 kts 220°
2026-05-06 21:47 60.31675 24.95797 168 ft 2 kts 216°
2026-05-06 21:47 60.31671 24.95795 168 ft 1 kts 202°
2026-05-06 21:48 60.31662 24.95801 168 ft 1 kts 160°
2026-05-06 21:48 60.31644 24.95847 168 ft 6 kts 125°
2026-05-06 21:48 60.31641 24.95856 168 ft 2 kts 125°
2026-05-06 21:48 60.31629 24.95895 168 ft 1 kts 126°
2026-05-06 21:49 60.31621 24.95911 168 ft 0 kts 133°
2026-05-06 21:49 60.31619 24.95913 168 ft 1 kts 137°
2026-05-06 21:49 60.31614 24.95922 168 ft 0 kts 140°